Preview of NWS' New Version of Forecast
This preview is not operational and should not be used for support decisions.

Regional Weather Roundup (RWR)

Issued by National Weather Service (NWS)

                            
000
ASUS45 KABQ 181001
RWRNM 
NEW MEXICO REGIONAL WEATHER ROUNDUP
NATIONAL WEATHER SERVICE ALBUQUERQUE NM
300 AM MST MON FEB 18 2019

NOTE: "FAIR" MEANS FEW OR NO CLOUDS BELOW 12,000 FEET AGL WITH NO
       SIGNIFICANT WEATHER OR OBSTRUCTIONS TO VISION.

      THIS PRODUCT IS RELEASED AS TWO VERSIONS.  ONE VERSION NEAR
      THE TOP OF THE HOUR CONTAINING PRELIMINARY DATA FROM ALBUQUERQUE
      AND OTHER STATIONS.  A FINAL VERSION WITH ADDITIONAL DATA IS 
      ISSUED ABOUT 10 MINUTES AFTER THE HOUR.
 
NMZ501-503-504-510>518-181100-
NORTHWEST PLATEAU/NORTHCENTRAL MOUNTAINS
  
CITY           SKY/WX    TMP DP  RH WIND       PRES   REMARKS
FARMINGTON     FLURRIES  25  21  85 NE3       29.88S                  
LOS ALAMOS     MOCLDY    21  21 100 SW3       29.91S                  
SANTA FE       CLOUDY    24  22  91 E5        29.93S WCI  18          
TAOS           MOCLDY    16  13  88 N6        29.93S WCI   7          
ANGEL FIRE       N/A      6   3  90 W3        29.88S                  

$$
NMZ402-403-502-505>509-181100-
WESTCENTRAL MOUNTAINS/SOUTHWEST MOUNTAINS
  
CITY           SKY/WX    TMP DP  RH WIND       PRES   REMARKS
GALLUP         MOCLDY    21  18  88 S5        29.88F WCI  15          
GRANTS         FAIR      24  16  70 S9G17     29.92S WCI  14          
SILVER CITY    FAIR      20  15  81 N7        29.95F WCI  11          

$$
NMZ407-409-411-412-181100-
SOUTHERN DESERTS
  
CITY           SKY/WX    TMP DP  RH WIND       PRES   REMARKS
DEMING         FAIR      27  16  63 W8        29.97F WCI  19          
LAS CRUCES     FAIR      29  13  51 N3        29.98F                  
HOLLOMAN AFB   FAIR      31   7  37 CALM      30.00F                  
ALAMOGORDO     FAIR      32  10  40 MISG      29.99F                  
T OR C         FAIR      35  14  42 CALM      29.94F                  

$$
NMZ519>523-181100-
CENTRAL VALLEYS/CENTRAL HIGHLANDS
  
CITY           SKY/WX    TMP DP  RH WIND       PRES   REMARKS
ALBUQUERQUE    FAIR      27  18  69 E3        29.94F                  
DOUBLE EAGLE   FAIR      19  17  89 CALM      29.94S                  
CLINES CORNERS FAIR      16  10  77 W10       29.93S WCI   4          
BELEN          FAIR      22  16  77 CALM      29.95S                  
SOCORRO        NOT AVBL                                               

$$
NMZ524>526-539-540-181100-
SOUTHCENTRAL MOUNTAINS
  
CITY           SKY/WX    TMP DP  RH WIND       PRES   REMARKS
RUIDOSO        NOT AVBL                                               

$$
NMZ527>531-181100-
NORTHEAST HIGHLANDS/NORTHEAST PLAINS
  
CITY           SKY/WX    TMP DP  RH WIND       PRES   REMARKS
LAS VEGAS      FAIR      17  12  80 S12       29.91F WCI   4          
RATON          HVY SNOW  16  12  84 N13       29.95R VSB 1/4 WCI   2  
CLAYTON        LGT SNOW  12   8  84 NE20      30.09S VSB 3/4 WCI  -6  

$$
NMZ532>537-181100-
EASTCENTRAL PLAINS
  
CITY           SKY/WX    TMP DP  RH WIND       PRES   REMARKS
SANTA ROSA     FAIR      22  13  69 SE7       29.97F WCI  14          
TUCUMCARI      MOCLDY    31  19  61 E16G22    30.02R WCI  20          
CANNON AFB     FAIR      24  16  72 E6        30.05R WCI  17          
CLOVIS AIRPORT FAIR      23  18  81 E7        30.06R WCI  15          

$$
NMZ028-029-538-181100-
SOUTHEAST PLAINS
  
CITY           SKY/WX    TMP DP  RH WIND       PRES   REMARKS
ROSWELL        FAIR      32   5  32 CALM      29.99S                  
ARTESIA        FAIR      32   7  34 S3        30.01F                  
CARLSBAD       FAIR      34  17  50 S7        30.00S WCI  28          
HOBBS          FAIR      28  21  74 E6        30.04S WCI  22          


$$